Location: Bratislava
(0.0000°N, 17.1167°E)
Time: 16:42:34
(UTC+02:00)

Daily predictions for brighter satellites

Satellite Brightness Start Highest point End
(mag) Time Altitude Azimuth Time Altitude Azimuth Time Altitude Azimuth
Ariane H10-3 4.3 18:39:12 10° WSW 18:44:27 69° S 19:16:38 10° E
Ariane H10-3 4.3 18:39:12 10° WSW 18:44:27 69° S 19:16:37 10° E
Ariane H10-3 4.3 18:39:12 10° WSW 18:44:28 69° S 19:16:38 10° E
Cosmos 1833 4.5 18:58:51 10° NNW 19:04:36 78° WSW 19:10:19 10° SSE
SL-08 RB Rocket 3.7 19:00:54 10° SSE 19:05:20 63° ENE 19:09:47 10° N
Centaur Rocket 4.4 19:01:42 10° W 19:05:36 60° NNW 19:17:20 10° ENE
Cosmos 1992 Rocket 4.0 19:01:00 10° NNW 19:06:12 90° ENE 19:11:26 10° SSE
Cosmos 2369 3.8 19:01:45 10° S 19:07:21 57° ESE 19:12:56 10° NNE
SL-8 R/B 3.9 19:02:52 10° NW 19:07:40 77° SW 19:12:29 10° SE
GPS 2-15 Rocket1 4.5 19:04:14 10° W 19:08:32 34° SSW 19:12:55 10° SE
Cosmos 1980 Rocket 2.3 19:06:12 10° S 19:11:47 58° ESE 19:17:18 10° NNE
Cosmos 1850 Rocket 4.4 19:08:08 10° S 19:12:55 38° ESE 19:17:41 10° NE
Cosmos 1869 Rocket 4.1 19:09:42 10° SSW 19:14:03 65° W 19:18:25 10° N
BREEZE-M DEB (TANK) 4.2 19:09:07 10° SW 19:14:12 38° WNW 19:16:32 10° NNE
ARGOS 3.7 19:11:58 10° S 19:17:17 64° WSW 19:22:33 10° NNW
Cosmos 1733 4.0 19:14:04 10° SSE 19:17:20 27° E 19:20:36 10° NE
Lacrosse 5 rocket 1.2 19:15:23 10° NW 19:19:00 76° WSW 19:22:34 10° SSE
ARGOS Delta rocket 3.9 19:14:12 10° N 19:19:17 89° E 19:24:05 10° S
GPS 2-17 Rocket1 3.0 19:17:04 10° WSW 19:21:22 71° NNW 19:25:25 11° ENE
Cosmos 405 Rocket 2.8 19:18:02 10° N 19:21:58 85° W 19:25:52 10° S
Cosmos 1464 Rocket 4.4 19:16:55 10° N 19:23:00 71° W 19:29:13 10° S
SL-16 R/B 3.9 19:21:29 10° SE 19:23:13 11° ESE 19:23:23 11° ESE
Aurora 2 Rocket 3.9 19:20:26 10° W 19:24:28 29° SSW 19:27:39 10° SSE
Cosmos 1842 3.3 19:23:50 10° N 19:27:35 55° E 19:31:23 10° SSE
SL-27 R/B 2.3 19:25:26 10° N 19:28:39 54° ENE 19:31:51 10° SSE
Cosmos 1726 3.3 19:30:01 10° SE 19:32:46 21° E 19:33:17 20° E
ARIANE 5 R/B 3.1 19:30:19 10° W 19:36:06 86° N 19:38:12 22° E
Cosmos 1707 3.4 19:33:00 10° NNE 19:36:21 30° E 19:39:42 10° SSE
ATLAS 2A CENTAUR R/B 1.9 19:33:35 10° NW 19:36:49 23° NNE 19:37:40 20° NE
ARIANE 5 R/B 4.3 19:27:07 10° W 19:38:08 45° SSW 19:41:14 16° ESE
Cosmos 1741 Rocket 3.9 19:33:12 10° S 19:38:32 76° E 19:43:48 10° NNE
Cosmos 1733 Rocket 2.9 19:38:23 10° S 19:42:44 76° E 19:47:06 10° N
Ariane H10 3.1 19:33:41 10° W 19:43:06 60° S 19:44:50 26° ESE
OAO 3 Rocket 3.7 19:38:47 10° WNW 19:43:25 55° SW 19:47:28 13° SE
Cosmos 1703 Rocket 3.6 19:39:37 10° N 19:43:56 80° W 19:48:19 10° S
PRC 14 4.5 19:40:53 10° NW 19:44:14 77° NE 19:46:16 25° ESE
Okean 3 3.5 19:41:11 10° N 19:45:24 80° W 19:49:36 10° S
Meteor 2-15 Rocket 4.5 19:41:18 10° N 19:47:16 55° E 19:53:15 10° SSE
SWIFT 4.3 19:45:54 10° SSW 19:48:22 15° SSE 19:49:20 14° SSE
Ariane H10 4.1 19:42:37 10° W 19:52:18 41° SSW 19:54:01 24° SE
Cosmos 1805 3.2 19:48:34 10° S 19:52:25 83° W 19:56:16 10° N
Nadezhda 4 Rocket 4.2 19:50:25 10° SSE 19:56:25 48° E 20:02:27 10° NNE
MINOTAUR IV R/B 4.5 19:53:29 10° S 19:58:02 69° ESE 20:01:41 15° NNE
IRIDIUM 106 4.5 19:53:27 10° SSE 19:58:26 46° E 20:03:23 10° NNE
Okean O Rocket 2.2 20:00:00 36° NE 20:00:00 36° NE 20:03:16 10° N
Cosmos 1242 Rocket 4.1 19:57:11 10° SSW 20:00:29 37° W 20:03:47 10° NNW
Landsat 5 3.7 19:57:41 10° N 20:02:07 76° WNW 20:06:28 10° SSW
Timation 1 Rocket 4.2 19:56:54 10° NNW 20:02:50 85° ENE 20:08:48 10° SSE
CZ-4C R/B 3.7 19:56:32 10° N 20:04:20 37° ENE 20:07:02 31° E
BLOCK DM-SL R/B 1.7 20:03:11 10° W 20:04:49 33° W 20:04:49 33° W
Ariane H10-3 2.9 20:01:27 10° W 20:05:57 46° N 20:06:01 46° N
ATLAS 5 CENTAUR R/B 4.2 19:14:32 10° WSW 20:09:01 56° NNW 20:17:02 19° NE
In-Cosmos 22 3.9 20:04:42 10° N 20:09:58 87° E 20:15:20 10° S
GPS 2-12 Rocket1 2.8 20:11:44 10° WNW 20:16:13 84° SSW 20:16:28 78° SE
ARIANE 3 DEB 3.4 20:20:23 10° WSW 20:26:00 57° SSW 20:26:00 57° SSW
ATLAS 3B R/B 2.8 20:22:14 10° NNW 20:29:57 84° ENE 20:34:17 29° SSE
YAOGAN 1 3.6 20:31:04 10° S 20:35:11 43° WSW 20:39:16 10° NNW
Atlas 2A Centaur Rocket 4.3 20:29:36 10° WSW 20:35:27 80° NNW 21:16:14 10° ENE
CZ-4B R/B 3.9 20:30:31 10° S 20:35:37 50° WSW 20:40:43 10° NNW
USA 267 3.1 20:40:13 75° E 20:40:32 77° NE 20:47:04 10° NNW
Mugunghwa Rocket 4.1 20:34:47 10° WNW 20:42:42 79° NNE 20:43:05 76° ENE
Cosmos 2322 Rocket 4.0 20:37:48 10° S 20:39:25 19° S 20:39:25 19° S
ARIANE 5 DEB (SYLDA) 4.2 20:30:30 10° W 20:45:01 65° SSW 20:45:22 64° S
Cosmos 2279 Rocket 4.4 20:49:42 10° NNW 20:55:49 60° W 21:01:59 10° S
ARIANE 5 DEB (SYLDA) 4.0 20:25:45 10° W 21:02:39 81° S 21:03:31 74° SE
SL-16 R/B 3.5 21:01:39 10° SSW 21:05:22 36° WSW 21:05:22 36° WSW
Cosmos 2297 Rocket 4.3 21:11:42 10° NNW 21:13:24 20° NW 21:13:24 20° NW
ARIANE 5 R/B 4.0 21:15:11 10° W 21:56:25 - E 21:16:25 25° W
CZ-4C R/B 4.4 21:45:02 10° NW 21:52:22 36° WSW 21:52:22 36° WSW
